Hourly Data Report for February 20, 2003

SHERBROOKE A
QUEBEC

45°26'00.000" N
71°41'00.000" W
241.40 m
7028124
71610
YSC

Download Data

Hourly Data (February 2003)
Hourly Data Report for February 20, 2003
TIME
LST
Temp Definition
°C
Dew Point Definition
°C
Rel Hum Definition
%
Precip. Amount Definition
mm

Wind Dir Definition
10's deg

Wind Spd Definition
km/h
Visibility Definition
km
Stn Press Definition
kPa
Hmdx Definition


Wind Chill Definition


Weather Definition


00:00 1.0 -6.4 58   23 15 15.0 98.56      
01:00 0.6 -7.1 56   26 28 15.0 98.58     Snow
02:00 -0.7 -5.5 70   26 20 4.0 98.60   -6 Snow
03:00 -0.3 -7.1 60   26 22 15.0 98.61   -6 Snow
04:00 -1.4 -7.6 63   26 33 12.9 98.66   -9 Snow
05:00 -2.7 -9.9 58   27 32 15.0 98.78   -10  
06:00 -3.2 -10.5 57   27 22 15.0 98.88   -10  
07:00 -3.6 -10.8 57   26 19 15.0 99.02   -10 Snow
08:00 -3.8 -10.9 58   25 17 24.1 99.08   -10 Snow Showers
09:00 -3.6 -10.4 59   25 17 19.3 99.09   -9 Snow Showers
10:00 -3.1 -10.7 56   27 26 24.1 99.12   -10 Mostly Cloudy
11:00 -2.1 -10.5 53   27 22 24.1 99.12   -8 Mainly Clear
12:00 -1.3 -10.4 50   22 22 24.1 99.03   -7 Mainly Clear
13:00 0.1 -10.5 45   23 20 24.1 98.93     Clear
14:00 1.0 -10.5 42   21 20 24.1 98.85     Clear
15:00 2.0 -10.9 38   23 19 24.1 98.80     Clear
16:00 2.4 -11.0 36   23 19 24.1 98.73     Clear
17:00 2.4 -11.4 35   22 13 24.1 98.64     Clear
18:00 1.0 -11.5 39   19 7 15.0 98.59      
19:00 -0.8 -11.9 43     0 15.0 98.56      
20:00 -2.5 -12.5 46   24 4 15.0 98.51   -4  
21:00 0.4 -11.0 42   24 9 15.0 98.48      
22:00 1.2 -9.3 45   23 11 15.0 98.45      
23:00 1.8 -7.9 49   23 15 15.0 98.42      

Notes on Data Quality.

Legend

  • E = Estimated
  • M = Missing
  • NA = Not Available*
  • [empty] = Indicates an unobserved value
Date modified: